Wetbulb
66.76 68.44 68.78 69.53 69.67 69.88 69.40 68.35 70.45 71.49 72.15 72.44 70.78 70.63 71.58 70.81 69.88 69.79 70.29 72.57 72.33 73.67 74.46 75.23 74.34 75.31 77.19 76.84 76.40 75.83 75.21 75.37 75.47 75.41 75.53 75.37 75.04 75.20 74.40 75.23 75.54 75.10 74.52
67.06 66.99 68.18 68.95 68.60 69.27 68.76 68.65 69.97 70.03 70.18 70.27 71.57 72.17 71.49 71.45 70.56 69.83 70.15 70.70 73.50 74.94 74.70 75.02 74.81 75.81 77.51 76.80 77.11 76.73 76.74 76.60 76.84 76.57 76.54 76.12 76.32 76.32 75.44 74.87 74.89 75.39 75.09
68.26 68.25 68.14 67.35 68.64 69.31 69.63 69.93 69.98 70.57 69.55 70.47 70.51 69.83 70.39 71.30 70.53 69.78 70.16 69.66 71.51 75.58 75.26 75.46 76.40 77.07 76.98 76.79 77.08 77.72 77.87 77.47 77.65 77.04 76.82 76.60 76.45 76.27 76.55 76.40 75.78 75.81 75.99
69.36 69.42 69.04 68.55 69.01 68.67 68.85 69.02 69.02 69.03 70.15 69.37 68.80 68.42 70.06 71.59 70.47 70.12 70.40 70.36 70.44 72.26 74.55 76.18 76.25 75.95 76.38 77.43 77.30 77.34 77.86 77.62 77.58 77.28 77.12 76.88 76.53 76.80 76.48 76.83 76.78 76.48 76.25
70.73 70.41 69.64 69.25 69.20 69.14 69.63 69.52 69.68 69.01 68.11 69.03 69.03 68.98 69.21 68.91 69.12 71.45 70.08 71.00 71.16 72.61 72.01 74.09 74.81 75.03 76.13 76.27 77.34 77.61 77.72 77.52 77.28 77.46 77.46 77.33 77.08 76.80 76.60 76.25 76.72 76.55 76.29
71.58 70.56 69.81 69.48 69.93 69.65 69.51 69.84 68.81 69.35 69.44 69.17 70.00 69.90 70.46 70.01 69.97 69.06 70.12 70.94 70.28 71.24 70.50 70.90 71.16 72.99 75.93 76.20 75.75 76.99 77.49 77.26 77.30 77.33 77.36 77.00 77.28 77.13 76.93 76.57 76.39 76.64 76.46
72.50 71.50 70.74 70.35 70.09 69.75 69.77 69.52 69.48 68.42 68.70 70.43 68.31 67.84 68.60 69.41 69.57 68.43 68.60 68.46 69.62 70.99 70.78 70.58 69.88 70.10 71.29 73.38 75.83 76.00 76.68 76.80 78.05 77.40 77.28 77.00 76.45 76.80 76.32 76.13 75.93 76.30 76.40
72.60 72.15 71.30 70.72 70.31 69.53 69.16 69.34 69.68 68.74 69.21 69.44 65.87 66.40 63.24 64.38 67.44 68.27 68.04 68.96 67.93 71.26 70.78 70.55 69.78 69.47 70.53 72.11 72.03 74.43 76.15 76.16 76.75 77.64 77.63 77.03 76.80 76.72 76.34 75.98 75.66 75.77 75.94
71.83 71.52 71.60 71.13 70.29 70.00 69.28 69.05 68.87 68.65 67.93 68.79 68.56 65.21 63.26 61.26 63.56 67.28 67.39 67.10 67.41 68.08 69.36 68.92 69.36 69.98 69.96 69.39 71.36 71.14 73.75 75.02 76.57 76.31 77.04 77.20 76.78 76.27 76.12 76.11 75.62 75.36 75.51
72.57 72.41 72.12 71.59 70.47 70.05 69.64 70.00 70.47 68.65 67.98 66.98 67.73 68.06 68.20 66.16 62.25 62.46 65.89 65.76 67.12 66.64 67.50 68.38 68.75 70.27 70.32 69.89 71.72 73.27 72.83 74.07 75.82 76.74 76.01 76.87 77.00 77.03 76.83 76.52 75.96 75.47 75.13
71.80 73.07 72.58 72.17 71.52 71.16 70.86 70.45 69.62 68.56 69.10 67.55 66.24 66.87 67.57 67.79 66.64 64.61 61.79 63.42 66.90 67.82 68.18 68.78 69.30 69.66 69.83 71.19 71.77 71.90 73.13 73.74 73.11 75.62 76.01 76.12 76.37 77.53 77.63 77.08 76.78 76.34 75.93
71.76 72.85 73.63 73.14 72.78 72.05 70.88 70.07 69.62 68.90 69.37 68.81 68.63 66.97 66.67 65.81 64.98 64.29 62.76 63.54 64.21 66.25 67.86 68.09 68.33 68.51 70.12 71.56 72.01 72.48 73.21 71.94 72.85 72.19 74.71 75.25 76.20 76.40 77.61 78.17 77.68 77.38 76.45
70.87 72.14 72.51 71.54 71.38 71.61 71.84 71.39 70.05 69.19 68.13 68.70 69.13 68.06 67.48 67.23 66.05 64.03 63.79 63.57 63.52 65.83 66.68 69.06 69.35 69.86 71.37 70.61 69.46 70.54 72.95 71.46 71.17 70.51 71.07 73.65 74.89 75.57 76.22 77.04 77.59 77.92 77.52
70.23 71.63 71.69 71.80 72.43 72.26 71.68 71.43 71.07 70.73 70.39 69.62 68.27 69.40 69.01 68.86 68.47 67.71 65.85 65.27 64.40 65.38 66.35 66.58 69.76 70.46 69.58 69.87 68.88 70.55 70.68 70.62 70.19 69.28 70.52 71.96 72.99 73.86 74.78 75.34 75.85 76.73 76.55
72.55 69.96 71.01 70.16 71.46 71.09 69.96 69.94 69.33 67.19 66.87 67.44 69.53 69.01 68.63 69.01 69.26 68.18 67.59 66.42 64.02 60.00 60.96 64.70 66.03 68.46 69.33 68.27 68.96 69.10 69.60 70.44 69.90 69.12 69.08 70.49 71.16 72.09 72.97 73.57 73.74 74.16 74.65
68.94 69.94 70.07 70.46 69.69 68.79 68.56 67.86 67.21 66.81 66.02 66.76 69.01 68.74 68.22 68.09 67.44 65.23 65.56 64.19 64.79 62.98 59.12 62.10 63.22 66.47 67.86 68.79 69.00 69.00 69.86 70.82 69.76 69.19 68.39 68.91 69.38 70.66 71.53 72.07 72.31 72.51 72.99
68.88 67.37 68.13 67.88 67.14 66.56 66.56 66.79 66.90 65.20 67.75 65.30 67.82 68.22 68.18 67.08 65.97 64.08 61.78 62.17 60.63 59.61 57.23 59.53 61.50 61.59 63.46 64.41 65.23 67.36 70.09 70.68 69.92 68.87 68.72 69.17 68.44 68.91 69.76 70.46 70.71 71.09 71.47
69.03 68.72 66.69 65.97 65.84 66.36 65.75 66.45 67.21 67.71 67.70 66.85 66.85 66.78 66.25 67.44 65.13 64.34 63.88 62.43 61.64 60.64 60.00 57.44 57.98 59.19 60.37 60.85 61.11 61.69 63.90 67.96 69.71 70.81 69.45 68.76 68.19 67.57 67.48 67.89 68.04 68.31 68.63
67.62 68.04 66.92 66.11 66.24 65.75 65.75 66.02 66.52 65.98 67.30 67.50 67.03 66.78 66.83 66.12 64.84 65.00 65.45 65.02 64.43 64.39 61.61 59.46 59.51 59.53 59.10 58.89 58.81 59.93 62.38 62.59 65.99 70.27 68.66 67.98 67.74 67.30 66.45 65.84 65.91 65.35 64.98
65.82 65.01 64.88 65.48 65.14 63.69 64.02 64.26 64.21 63.62 63.43 65.01 66.90 66.85 66.20 65.22 64.55 65.18 65.50 63.90 63.92 63.58 62.84 60.53 59.66 58.77 58.43 58.86 58.22 58.21 58.74 60.59 63.73 64.78 66.09 68.30 68.87 68.38 66.92 65.45 65.11 64.94 63.01
66.05 65.05 64.85 64.55 62.57 61.45 61.49 58.05 58.71 57.59 56.90 57.96 59.06 59.09 59.81 61.75 63.91 63.40 62.51 61.05 60.64 60.05 60.65 59.57 58.47 57.96 57.80 57.68 57.08 57.13 57.27 59.57 61.21 61.73 64.32 67.84 68.72 68.92 69.03 66.90 67.75 67.26 64.64
60.50 60.56 60.29 62.44 60.34 59.98 60.86 61.55 57.62 56.17 56.85 56.77 55.22 55.81 57.61 58.89 56.87 56.98 57.89 58.76 59.45 58.18 57.74 57.64 58.08 58.14 56.80 56.78 57.42 57.82 57.28 57.60 57.62 62.62 62.24 62.71 65.05 65.34 67.75 69.91 68.47 66.07 64.39
57.00 57.41 57.48 56.83 58.30 56.41 59.10 60.14 58.69 52.36 51.87 51.99 50.61 50.91 51.77 55.23 52.76 49.88 51.77 53.10 52.75 54.65 55.54 57.13 56.72 56.68 56.96 58.05 57.72 56.98 57.48 57.62 57.84 61.13 61.28 60.75 62.56 62.78 64.77 65.84 65.66 65.83 64.25
55.15 54.61 55.29 54.36 54.24 56.02 58.15 58.42 58.08 51.14 49.37 50.07 48.54 48.15 48.43 49.78 50.67 50.92 47.35 46.51 46.83 47.85 49.25 52.03 52.25 54.11 55.56 57.07 56.34 56.18 55.70 56.38 57.14 59.11 61.15 59.22 61.42 61.49 63.15 63.40 64.13 64.94 64.19
53.14 51.96 52.53 51.95 52.55 53.48 57.44 57.41 53.75 49.89 48.67 47.84 48.44 48.48 50.44 49.07 52.36 54.05 47.45 45.51 45.72 46.72 51.39 54.00 55.20 55.49 55.71 56.27 56.88 54.73 51.43 49.99 49.93 51.99 56.56 58.21 59.82 60.20 61.45 63.17 63.54 63.06 61.98
52.38 52.24 51.99 52.54 54.86 52.17 55.42 56.56 53.09 49.22 45.76 46.05 46.40 47.53 52.33 51.89 53.65 54.21 48.41 44.85 43.89 45.14 45.68 46.89 48.17 49.66 50.68 50.16 54.48 52.62 51.64 49.00 49.06 49.10 53.56 54.43 57.62 58.53 57.65 61.39 63.39 64.37 63.24
MSLP
1016.50 1016.45 1016.51 1016.52 1016.46 1016.43 1016.49 1016.57 1016.57 1016.53 1016.66 1016.67 1016.95 1017.19 1017.11 1017.26 1017.11 1017.02 1017.28 1017.84 1016.92 1016.70 1016.89 1017.12 1017.46 1017.80 1018.00 1018.40 1018.50 1018.45 1018.56 1018.83 1019.00 1019.08 1019.22 1019.23 1019.24 1019.29 1019.36 1019.38 1019.43 1019.52 1019.61
1015.96 1016.03 1016.16 1016.18 1016.05 1016.06 1016.15 1016.31 1016.28 1016.30 1016.62 1016.57 1016.62 1016.62 1016.77 1016.91 1016.79 1016.68 1016.90 1017.36 1016.85 1016.45 1016.28 1016.70 1017.03 1017.22 1017.52 1017.72 1018.14 1018.20 1018.10 1018.34 1018.53 1018.71 1018.85 1018.88 1018.81 1018.92 1019.03 1019.18 1019.29 1019.29 1019.43
1015.49 1015.61 1015.81 1015.97 1015.64 1015.55 1015.73 1015.96 1016.08 1016.29 1016.56 1016.36 1016.41 1016.31 1016.36 1016.24 1016.57 1016.47 1016.40 1016.57 1016.38 1016.31 1016.21 1016.35 1016.43 1016.49 1016.80 1017.17 1017.52 1017.69 1017.65 1017.83 1017.96 1018.28 1018.51 1018.56 1018.54 1018.66 1018.70 1018.83 1018.94 1019.04 1019.17
1015.09 1015.26 1015.56 1015.60 1015.34 1015.43 1015.48 1015.75 1015.86 1016.05 1016.27 1016.31 1015.97 1015.89 1015.90 1015.72 1016.16 1015.91 1016.00 1015.94 1016.07 1015.97 1016.15 1015.93 1015.79 1016.16 1016.31 1016.51 1016.83 1017.05 1017.12 1017.39 1017.57 1017.72 1017.98 1018.17 1018.27 1018.37 1018.43 1018.52 1018.66 1018.81 1018.89
1014.67 1014.97 1015.00 1014.94 1014.96 1015.17 1015.44 1015.66 1015.63 1015.75 1016.02 1016.09 1015.95 1015.63 1015.59 1015.50 1015.52 1015.23 1015.62 1015.73 1015.68 1015.55 1015.52 1015.48 1015.77 1015.99 1015.82 1015.80 1016.07 1016.42 1016.72 1016.88 1017.17 1017.31 1017.44 1017.54 1017.71 1017.95 1018.11 1018.22 1018.33 1018.50 1018.65
1014.30 1014.55 1014.62 1014.57 1014.67 1015.03 1015.28 1015.38 1015.45 1015.52 1015.65 1015.67 1015.75 1015.47 1015.37 1015.32 1015.17 1015.38 1015.56 1015.24 1015.23 1015.19 1015.20 1015.16 1015.21 1015.21 1015.41 1015.60 1015.56 1015.78 1016.09 1016.29 1016.52 1016.78 1016.91 1017.00 1017.25 1017.34 1017.46 1017.71 1017.95 1018.15 1018.29
1013.83 1013.99 1014.07 1014.34 1014.19 1014.44 1014.65 1014.99 1015.20 1015.39 1015.49 1015.50 1015.77 1015.55 1015.10 1014.82 1014.77 1014.84 1014.86 1015.05 1014.80 1014.97 1014.81 1014.75 1014.84 1014.93 1015.21 1015.28 1015.24 1015.16 1015.46 1015.79 1015.92 1016.15 1016.29 1016.32 1016.54 1016.66 1016.79 1017.07 1017.46 1017.72 1017.86
1013.32 1013.56 1013.87 1014.01 1014.13 1014.35 1014.61 1014.71 1014.83 1015.01 1015.16 1015.50 1015.67 1015.77 1015.45 1015.22 1015.02 1014.72 1014.88 1014.73 1014.75 1014.69 1014.62 1014.34 1014.47 1014.67 1014.56 1014.74 1014.76 1014.85 1014.91 1015.19 1015.38 1015.39 1015.32 1015.55 1016.01 1016.22 1016.28 1016.38 1016.83 1017.15 1017.38
1012.77 1013.02 1013.19 1013.48 1013.63 1013.90 1014.11 1014.14 1014.30 1014.64 1014.89 1015.11 1015.31 1015.49 1015.59 1015.56 1015.25 1014.74 1014.66 1014.66 1014.65 1014.55 1014.55 1014.37 1014.25 1013.91 1013.65 1014.23 1014.08 1014.20 1014.46 1014.69 1014.68 1014.80 1014.81 1014.72 1015.13 1015.40 1015.79 1015.94 1016.18 1016.43 1016.70
1012.30 1012.39 1012.57 1012.73 1013.01 1013.31 1013.61 1013.68 1013.80 1014.01 1014.37 1014.62 1014.92 1015.00 1015.22 1015.38 1015.44 1015.22 1014.75 1014.56 1014.33 1014.12 1014.14 1013.87 1013.53 1013.10 1013.22 1013.81 1013.88 1013.82 1013.75 1013.85 1013.77 1013.80 1014.15 1014.00 1014.30 1014.68 1014.91 1015.24 1015.56 1015.79 1016.05
1011.84 1011.73 1011.90 1012.24 1012.43 1012.72 1013.05 1013.20 1013.54 1013.74 1014.04 1014.19 1014.49 1014.75 1014.87 1015.05 1015.14 1015.44 1015.20 1014.65 1014.26 1013.86 1013.75 1013.44 1013.05 1012.57 1012.96 1013.07 1013.33 1013.56 1013.03 1012.99 1013.04 1012.95 1013.27 1013.44 1013.56 1013.89 1014.18 1014.44 1014.68 1015.05 1015.42
1011.81 1011.77 1011.64 1011.81 1011.83 1012.22 1012.64 1012.94 1013.28 1013.46 1013.78 1014.01 1014.15 1014.30 1014.49 1014.65 1014.78 1015.03 1015.06 1014.70 1014.48 1013.83 1013.43 1013.59 1013.50 1013.06 1012.68 1013.02 1012.77 1012.76 1012.28 1012.29 1012.53 1012.30 1012.63 1012.79 1012.98 1013.03 1013.23 1013.50 1013.77 1014.08 1014.45
1011.81 1011.69 1011.61 1011.84 1011.99 1012.36 1012.76 1013.17 1013.07 1013.67 1013.84 1013.75 1013.90 1014.02 1014.03 1014.11 1014.33 1014.39 1014.71 1014.57 1014.36 1013.95 1013.55 1013.29 1012.84 1012.38 1012.47 1012.58 1012.51 1012.22 1012.08 1012.15 1011.79 1011.84 1011.89 1011.91 1012.25 1012.24 1012.52 1012.69 1012.79 1013.09 1013.54
1011.73 1011.29 1011.49 1011.68 1011.83 1012.22 1012.76 1013.04 1012.76 1013.32 1013.65 1013.79 1013.52 1013.58 1013.65 1013.73 1013.85 1013.92 1014.06 1014.37 1014.51 1014.04 1013.70 1013.15 1012.80 1012.83 1012.39 1012.12 1012.01 1012.14 1012.22 1012.06 1011.26 1011.60 1011.02 1011.10 1011.49 1011.62 1011.75 1011.99 1012.29 1012.46 1012.60
1011.76 1011.90 1011.42 1011.74 1011.82 1012.29 1012.39 1012.63 1012.51 1013.04 1013.32 1013.68 1013.54 1012.99 1013.21 1013.16 1013.34 1013.48 1013.64 1014.01 1014.30 1014.57 1014.00 1012.90 1012.87 1012.32 1012.22 1012.29 1011.96 1011.63 1011.03 1010.61 1011.08 1011.33 1011.07 1010.79 1010.86 1011.17 1011.41 1011.43 1011.66 1011.95 1012.23
1011.73 1011.74 1011.76 1011.95 1012.15 1012.34 1012.49 1012.66 1013.01 1012.86 1013.29 1013.69 1013.55 1013.36 1013.14 1013.23 1013.28 1013.13 1013.25 1013.54 1013.84 1014.15 1014.19 1013.42 1012.87 1012.57 1012.11 1011.89 1011.57 1011.45 1011.05 1010.86 1010.75 1010.66 1010.39 1010.06 1010.41 1010.55 1010.70 1010.85 1010.94 1011.18 1011.54
1011.93 1011.92 1012.06 1012.36 1012.59 1012.69 1012.70 1012.71 1012.65 1012.94 1012.65 1013.21 1013.44 1013.59 1013.91 1013.77 1013.82 1013.41 1013.46 1013.63 1013.83 1013.97 1014.24 1013.56 1013.01 1012.44 1012.29 1012.00 1011.44 1011.10 1010.92 1010.47 1010.04 1009.86 1009.95 1009.94 1009.94 1009.98 1009.99 1010.11 1010.31 1010.50 1010.81
1012.14 1012.21 1012.32 1012.62 1012.76 1012.75 1012.72 1012.73 1012.82 1012.79 1013.01 1012.84 1013.67 1013.91 1014.03 1013.65 1013.69 1013.32 1013.50 1013.63 1013.75 1013.81 1013.97 1013.85 1013.30 1012.86 1012.39 1011.89 1011.70 1011.37 1010.82 1010.17 1009.87 1009.45 1009.35 1009.28 1009.29 1009.29 1009.38 1009.24 1009.38 1009.73 1010.08
1012.55 1012.60 1012.56 1012.67 1012.86 1012.85 1012.86 1013.03 1013.14 1013.34 1013.52 1013.59 1013.77 1013.61 1014.02 1013.76 1013.37 1013.39 1013.57 1013.63 1013.48 1013.25 1013.44 1013.64 1013.25 1012.70 1012.22 1011.87 1011.50 1011.25 1010.96 1010.34 1009.56 1009.11 1008.78 1008.63 1008.59 1008.46 1008.48 1008.54 1008.53 1008.84 1009.13
1012.85 1012.87 1012.87 1012.81 1013.03 1013.25 1013.36 1013.36 1013.46 1013.76 1013.97 1014.04 1014.00 1013.95 1014.06 1013.74 1013.71 1013.64 1013.69 1013.80 1013.55 1013.35 1013.14 1013.39 1013.10 1012.70 1012.14 1011.79 1011.53 1011.39 1010.76 1010.32 1009.92 1009.23 1008.89 1008.32 1007.80 1007.76 1007.84 1007.98 1008.30 1008.49 1008.45
1013.25 1013.25 1013.20 1013.31 1013.46 1013.60 1013.84 1013.91 1013.94 1014.12 1014.27 1014.27 1014.22 1014.10 1013.95 1013.83 1013.78 1013.90 1013.98 1013.76 1013.61 1013.44 1013.38 1013.22 1013.03 1012.61 1012.18 1011.90 1011.80 1011.30 1011.16 1010.54 1009.88 1009.44 1008.72 1008.42 1008.34 1008.10 1007.69 1007.60 1007.58 1007.73 1007.86
1013.86 1013.78 1013.80 1013.84 1014.01 1014.03 1014.05 1014.11 1014.11 1014.31 1014.36 1014.26 1014.39 1014.26 1014.02 1014.09 1014.17 1014.14 1014.10 1013.95 1013.79 1013.55 1013.30 1013.13 1012.75 1012.49 1011.97 1011.55 1011.29 1011.22 1011.11 1010.93 1010.21 1009.07 1009.03 1008.38 1008.38 1007.90 1007.64 1007.37 1007.07 1006.92 1006.98
1014.35 1014.31 1014.29 1014.27 1014.39 1014.40 1014.33 1014.31 1014.34 1014.66 1014.96 1015.10 1015.13 1014.97 1014.70 1014.69 1014.65 1014.63 1014.51 1014.27 1013.96 1013.63 1013.35 1013.05 1012.61 1012.32 1011.75 1011.14 1010.95 1011.01 1010.86 1010.64 1010.32 1009.51 1009.38 1008.64 1008.21 1007.79 1007.42 1006.93 1006.64 1006.57 1006.56
1014.79 1014.67 1014.65 1014.62 1014.55 1014.49 1014.48 1014.50 1014.63 1014.78 1014.90 1015.07 1015.12 1015.05 1015.06 1014.96 1014.69 1014.47 1014.34 1014.11 1013.86 1013.62 1013.09 1012.66 1012.50 1012.21 1011.82 1011.38 1011.00 1010.85 1010.54 1010.34 1009.82 1009.18 1009.12 1008.43 1007.81 1007.53 1006.87 1006.45 1006.12 1005.91 1005.75
1014.99 1014.98 1014.83 1014.75 1014.73 1014.52 1014.40 1014.46 1014.70 1015.02 1015.23 1015.25 1015.05 1014.87 1014.75 1014.58 1014.39 1014.31 1014.28 1014.00 1013.49 1013.00 1012.61 1012.11 1011.71 1011.39 1011.22 1010.77 1010.66 1010.53 1010.34 1010.05 1009.13 1008.78 1008.50 1008.23 1007.47 1006.97 1006.76 1006.02 1005.44 1005.01 1004.72
1015.15 1015.10 1014.83 1014.89 1014.54 1014.45 1014.26 1014.36 1014.67 1015.09 1015.50 1015.43 1015.23 1015.04 1014.81 1014.58 1014.27 1013.97 1013.83 1013.68 1013.23 1012.60 1012.21 1011.56 1011.26 1010.75 1010.51 1010.25 1009.92 1009.87 1009.76 1009.48 1009.05 1008.04 1007.42 1007.53 1007.20 1006.97 1005.97 1005.22 1004.49 1004.17 1004.00
Wind_Speed
4 3 3 4 3 3 3 4 4 4 5 6 4 6 5 6 7 5 2 6 14 18 13 17 19 19 18 19 19 17 16 16 16 15 15 14 13 11 11 10 11 10 8
4 4 4 4 4 3 2 3 4 4 3 3 5 5 3 6 6 8 5 8 25 22 15 15 19 20 20 19 20 19 18 17 17 17 16 15 14 14 14 12 11 11 8
6 5 4 4 4 4 4 2 2 3 4 2 5 4 5 6 8 11 10 9 11 24 21 20 21 20 21 20 20 20 18 17 18 18 17 15 14 14 13 13 13 12 10
7 6 4 4 4 4 2 2 3 3 3 4 3 3 4 3 4 8 10 8 10 9 17 26 23 21 20 22 21 21 20 19 19 18 17 16 16 15 14 14 13 12 11
8 6 5 5 4 3 3 3 3 3 3 3 4 3 4 4 5 5 9 6 4 7 4 7 14 19 20 22 19 20 20 21 21 19 18 17 16 16 15 15 14 13 12
7 6 4 5 4 3 3 3 5 4 3 1 3 5 4 4 4 3 5 4 4 4 5 4 2 2 14 19 19 19 20 21 20 19 19 18 18 17 16 15 14 14 13
6 6 4 5 5 5 5 3 3 4 3 2 0 4 3 5 6 4 4 4 5 5 5 5 4 3 2 11 15 20 19 21 21 21 19 20 20 18 17 15 15 15 15
6 5 5 6 6 4 4 5 5 2 2 3 3 1 3 3 2 3 3 3 5 4 4 5 5 4 4 1 3 9 15 20 22 22 22 20 20 19 18 17 16 16 16
6 6 6 5 5 4 4 5 4 6 4 3 5 3 2 3 2 0 4 4 3 2 3 5 5 4 4 1 4 4 8 17 21 22 22 20 19 20 18 17 17 17 16
6 6 7 7 7 4 5 5 4 3 4 5 2 3 3 2 2 3 2 3 3 3 5 4 5 2 2 3 7 9 4 7 16 20 23 20 20 20 20 18 18 17 17
7 6 7 7 7 5 5 5 4 4 3 3 3 2 3 3 3 3 3 3 2 3 4 3 4 3 5 5 4 8 11 5 10 14 23 22 20 21 21 20 19 19 18
4 6 6 6 6 5 4 3 4 5 4 4 3 4 3 3 3 3 3 3 2 4 3 3 3 6 6 4 8 13 9 2 9 10 17 22 22 22 22 22 21 21 21
2 5 4 4 2 3 4 2 3 3 3 3 5 4 4 4 2 2 3 3 3 2 2 3 6 6 6 5 6 12 13 10 4 10 14 21 23 22 21 22 22 21 21
3 4 2 0 6 6 4 3 3 3 5 4 6 5 4 4 4 4 3 3 2 2 2 5 3 5 6 5 9 14 6 10 4 12 12 16 20 19 19 19 19 20 20
1 3 4 4 7 8 6 3 4 4 6 8 8 5 4 3 4 3 3 2 4 2 3 3 2 3 4 4 8 5 7 5 11 12 11 13 13 14 16 17 17 17 18
4 5 5 5 3 3 3 4 3 4 3 3 7 12 4 3 3 1 2 2 2 3 3 2 2 2 3 5 7 6 7 12 12 14 14 8 10 15 17 17 17 17 17
4 4 5 5 5 4 3 3 4 0 3 4 4 7 10 3 4 2 1 1 1 2 2 4 2 2 2 4 7 5 7 7 6 11 13 13 14 15 15 16 17 17 17
5 5 5 5 3 2 3 3 4 3 2 7 3 3 5 4 4 3 0 1 2 3 3 5 3 3 3 4 4 6 7 7 7 10 14 15 14 15 16 17 16 16 17
5 4 3 4 5 4 4 4 3 3 2 4 4 2 5 4 4 2 3 4 3 2 2 3 5 2 3 3 3 2 4 7 7 10 11 14 14 15 14 15 17 17 18
5 5 5 5 6 6 6 5 5 4 2 2 3 3 2 4 4 5 4 5 4 4 3 4 4 4 3 3 2 3 8 3 5 8 10 11 9 11 12 13 14 15 16
6 6 6 6 6 6 5 6 6 6 5 5 5 5 4 7 9 8 3 5 5 3 3 4 4 3 3 3 4 2 4 6 6 5 4 4 4 4 5 9 9 15 16
6 6 6 6 6 4 8 9 7 5 5 6 7 7 7 12 11 15 16 15 11 5 5 3 3 4 6 3 2 3 2 3 5 2 4 10 3 6 4 4 7 11 12
5 5 5 5 4 3 7 8 10 5 5 6 6 6 6 6 8 6 10 12 12 16 14 8 6 4 5 3 2 2 2 3 4 7 4 8 5 7 7 7 11 12 13
4 3 3 3 2 1 4 4 8 4 4 4 4 4 3 2 2 5 4 5 5 6 7 7 5 5 6 7 4 4 5 5 6 6 5 9 5 7 6 6 12 14 14
4 3 2 3 4 4 5 3 7 3 3 4 4 4 2 2 6 6 4 6 9 9 10 15 15 15 14 14 12 6 7 7 10 8 4 6 7 8 6 9 7 14 16
2 4 6 5 6 5 5 7 6 3 2 1 3 4 8 7 11 11 6 6 8 10 9 11 11 12 13 10 17 11 8 9 8 9 7 7 7 5 5 5 8 7 4
Wind_Direction
212 218 223 237 243 242 237 234 229 212 217 212 209 222 205 212 218 221 191 249 318 261 221 231 234 243 240 224 227 222 223 232 234 234 235 235 229 229 236 239 246 228 229
210 212 226 234 243 229 255 231 231 210 237 225 217 211 217 206 224 230 197 198 217 248 244 241 239 243 241 230 230 225 222 225 231 237 239 237 231 224 228 229 239 248 223
212 218 213 229 227 232 247 231 199 203 210 226 241 241 225 208 208 225 218 208 225 240 237 235 233 237 232 230 228 227 224 227 230 233 235 234 239 237 233 226 229 242 222
208 210 215 229 230 234 229 236 237 230 223 232 255 248 253 272 226 203 215 209 213 222 237 240 236 232 233 224 225 225 224 227 232 232 234 236 238 238 234 232 230 233 227
211 205 212 230 235 246 243 236 252 200 210 236 254 245 257 253 248 212 202 207 228 213 216 250 242 249 242 238 230 230 231 227 230 231 232 232 233 236 234 234 232 230 227
212 198 214 230 219 216 243 241 227 209 207 180 270 283 272 255 256 236 186 200 188 182 158 137 150 288 260 251 237 233 236 231 230 228 231 234 233 228 230 229 229 229 226
208 211 215 231 211 213 216 204 213 223 257 188 359 290 268 233 234 199 194 190 170 191 187 151 150 118 25 301 271 236 236 240 232 233 232 236 235 227 223 222 225 226 226
205 207 215 220 224 230 236 209 205 185 198 206 177 183 295 328 268 226 227 213 186 191 221 202 162 151 93 47 9 319 261 248 244 236 232 232 233 230 222 216 218 222 225
212 211 217 217 222 207 227 220 206 208 201 220 217 169 266 260 339 320 242 244 271 241 247 234 175 185 130 283 296 256 283 261 255 248 237 226 227 229 225 221 219 219 222
229 214 212 211 213 203 228 230 204 209 159 200 191 219 207 194 201 321 330 291 274 231 241 238 188 179 153 210 251 241 261 3 258 244 247 230 224 223 222 220 223 221 221
236 226 205 209 211 202 223 210 223 182 192 163 167 162 198 219 198 201 267 305 303 244 228 234 298 280 221 221 221 227 247 287 355 264 251 239 228 222 224 221 218 218 220
248 230 216 205 212 201 215 212 214 210 202 203 187 188 193 190 196 188 226 266 223 280 235 194 219 245 237 228 256 258 259 260 300 335 252 244 233 226 223 223 221 218 217
244 251 230 248 244 55 45 12 31 305 259 229 205 219 205 220 218 180 170 245 231 285 295 222 217 220 231 209 237 263 262 241 292 288 286 236 232 223 225 225 222 219 219
249 295 248 33 132 124 151 92 87 48 358 286 241 217 213 220 201 211 200 166 280 269 249 240 219 216 242 234 236 254 220 247 285 279 303 245 230 224 220 222 224 222 215
231 40 81 92 113 128 145 144 92 46 9 341 301 240 221 231 233 233 208 170 164 257 280 299 254 263 250 254 260 273 296 282 245 261 251 227 228 230 228 221 216 215 216
59 82 74 86 81 77 99 117 97 95 57 353 335 339 286 292 257 14 93 130 156 176 256 244 265 282 298 294 293 286 265 255 238 241 269 280 252 238 233 229 219 212 211
72 80 82 94 108 138 142 102 111 184 72 180 349 349 319 356 288 259 56 105 88 135 222 296 288 305 305 308 314 299 286 271 272 256 248 244 241 238 231 227 224 219 214
59 88 105 122 102 97 128 162 172 160 61 111 123 255 284 291 259 19 265 246 219 201 174 252 255 282 272 295 278 311 317 319 305 257 246 246 235 230 225 223 219 217 218
74 79 95 109 96 95 87 83 102 103 37 111 188 2 314 312 335 13 322 294 287 259 217 233 279 261 253 290 309 280 298 307 318 317 291 259 244 233 230 222 216 215 213
67 58 58 65 82 65 46 42 62 61 89 66 54 73 85 34 5 352 338 292 298 302 290 263 271 263 263 276 287 304 314 311 308 319 298 284 243 246 234 227 234 229 217
60 51 58 68 78 75 75 73 60 50 49 32 22 23 19 7 17 18 344 329 322 289 285 278 273 279 265 291 277 256 277 295 298 262 289 343 343 301 272 247 244 233 228
47 52 52 72 79 79 76 71 76 57 33 25 27 25 19 38 25 18 11 6 357 331 290 243 235 260 273 250 258 278 249 291 305 295 4 315 343 314 303 303 260 237 223
29 42 50 65 82 96 83 71 73 71 68 62 55 32 10 20 31 24 6 2 352 344 340 328 298 271 267 271 299 262 262 275 262 287 296 285 296 287 286 278 256 250 241
31 44 52 68 66 211 157 116 87 70 69 79 68 54 49 55 1 9 345 333 315 305 311 315 302 295 307 316 287 268 275 264 264 276 253 275 280 270 275 262 255 251 246
11 8 317 13 20 320 281 200 116 97 61 32 5 358 5 305 280 318 321 307 306 305 297 293 291 298 297 297 284 287 288 294 291 281 264 274 270 274 268 273 264 247 244
331 342 342 27 321 329 325 137 124 118 130 261 294 297 299 285 286 276 283 277 289 296 297 298 291 291 288 277 279 266 260 260 270 291 247 241 258 264 272 246 249 251 258